Location: Observatoire
(46.1952°N, 5.3391°E)
Time: 22:53:24
(UTC+01:00)

A-11 Canister half - Pass Details

Date: 22 February 2026
Orbit: 1525 x 1683 km, 47.3° (Epoch: 9 March)

Event Time Altitude Azimuth Distance (km) Brightness Sun altitude
Rises 16:34:59 0° 241° (WSW) 4,742 13.5 15.0°
Reaches altitude 10° 16:38:04 10° 239° (WSW) 3,741 14.3 14.5°
Maximum altitude 16:47:28 75° 157° (SSE) 1,578 9.4 13.1°
Drops below altitude 10° 16:56:43 10° 74° (ENE) 3,693 10.4 11.7°
Sets 16:59:45 0° 73° (ENE) 4,678 10.9 11.3°
